Stations météo

réclame
Mon MeteoGroup
Marina Di Ginosa, Italie (16325): Température de l'air & dewpoint: 17.10.2018 11:00:00 - 23.10.2018 11:00:00 (CEST)Marina Di Ginosa, Italie (16325): Vitesse du vent: 17.10.2018 11:00:00 - 23.10.2018 11:00:00 (CEST)Marina Di Ginosa, Italie (16325): Direction du vent: 17.10.2018 11:00:00 - 23.10.2018 11:00:00 (CEST)Marina Di Ginosa, Italie (16325): reduced air pressure: 17.10.2018 11:00:00 - 23.10.2018 11:00:00 (CEST)Marina Di Ginosa, Italie (16325): visibility: 17.10.2018 11:00:00 - 23.10.2018 11:00:00 (CEST)
Date & Time tt [°C] td [°C] ff [km/h] ff [knt] dd ppp [hPa] vv [km]
23.10.2018 11:00:00 21,8 14,7 11 6 NNW 1013,5 20
23.10.2018 10:00:00 19,0 14,0 11 6 NNW - 10
23.10.2018 09:00:00 18,0 15,0 13 7 NNW - 10
23.10.2018 08:00:00 16,2 14,6 8 4 N 1012,4 12
23.10.2018 07:00:00 16,0 15,0 5 3 - - 10
23.10.2018 06:00:00 16,0 14,0 5 3 - - 10
23.10.2018 05:00:00 15,2 13,6 4 2 N 1011,6 20
23.10.2018 04:00:00 15,0 14,0 5 3 - - 10
23.10.2018 03:00:00 16,0 14,0 5 3 - - 10
23.10.2018 02:00:00 17,6 14,7 9 5 NW 1011,8 20
23.10.2018 01:00:00 17,0 14,0 11 6 NW - 10
23.10.2018 00:00:00 17,0 14,0 11 6 NW - 10
22.10.2018 23:00:00 17,8 14,7 13 7 NW 1011,8 20
22.10.2018 22:00:00 18,0 15,0 9 5 SSW - 10
22.10.2018 21:00:00 18,0 16,0 15 8 E - 10
22.10.2018 20:00:00 18,2 15,5 22 12 E 1010,5 12
22.10.2018 19:00:00 18,0 16,0 24 13 E - 10
22.10.2018 18:00:00 18,0 16,0 28 15 ESE - 10
22.10.2018 17:00:00 18,4 15,8 34 18 ESE 1009,5 18
22.10.2018 16:00:00 20,0 17,0 29 16 ESE - 10
22.10.2018 15:00:00 20,0 17,0 26 14 SE - 10
22.10.2018 14:00:00 19,0 16,4 29 16 SE 1010,4 12
22.10.2018 13:00:00 19,0 16,0 34 18 ESE - 8
22.10.2018 12:00:00 18,0 17,0 44 24 ESE - 6
22.10.2018 11:00:00 18,6 16,6 18 10 SE 1011,3 15
22.10.2018 10:00:00 18,0 15,0 21 11 SE - 10
22.10.2018 09:00:00 17,0 16,0 15 8 S - 10
22.10.2018 08:00:00 16,8 16,2 13 7 SSW 1011,4 10
22.10.2018 07:00:00 - - - - - - -
22.10.2018 06:00:00 - - - - - - -
22.10.2018 05:00:00 18,0 16,3 9 5 NNW 1012,4 10
22.10.2018 04:00:00 20,0 15,0 8 4 NW - 10
22.10.2018 03:00:00 18,0 14,0 5 3 NNW - 10
22.10.2018 02:00:00 17,2 14,7 5 3 NNW 1014,4 10
22.10.2018 01:00:00 17,0 15,0 8 4 N - 10
22.10.2018 00:00:00 17,0 15,0 5 3 N - 10
21.10.2018 23:00:00 17,2 15,4 8 4 NNW 1015,1 10
21.10.2018 22:00:00 17,0 16,0 9 5 NNE - 10
21.10.2018 21:00:00 17,0 16,0 11 6 N - 8
21.10.2018 20:00:00 17,4 15,7 4 2 N 1014,6 7
21.10.2018 19:00:00 18,0 17,0 8 4 NNW - 9
21.10.2018 18:00:00 19,0 16,0 9 5 NNW - 8
21.10.2018 17:00:00 19,0 16,4 9 5 N 1014,6 6
21.10.2018 16:00:00 24,0 13,0 9 5 N - 10
21.10.2018 15:00:00 24,0 12,0 9 5 NW - 10
21.10.2018 14:00:00 24,2 14,3 4 2 N 1015,0 10
21.10.2018 13:00:00 24,0 14,0 5 3 - - 10
21.10.2018 12:00:00 23,0 15,0 0 0 N - 10
21.10.2018 11:00:00 21,2 14,8 5 3 NW 1017,2 10
21.10.2018 10:00:00 20,0 15,0 8 4 NW - 10
21.10.2018 09:00:00 18,0 15,0 4 2 WNW - 10
21.10.2018 08:00:00 15,8 13,8 4 2 WNW 1017,4 10
21.10.2018 07:00:00 15,0 13,0 5 3 WNW - 10
21.10.2018 06:00:00 16,0 14,0 5 3 NW - 10
21.10.2018 05:00:00 16,2 14,0 9 5 WNW 1018,4 10
21.10.2018 04:00:00 16,0 14,0 5 3 NW - 10
21.10.2018 03:00:00 17,0 14,0 8 4 NW - 10
21.10.2018 02:00:00 17,0 14,5 5 3 WNW 1018,4 10
21.10.2018 01:00:00 17,0 14,0 5 3 NW - 10
21.10.2018 00:00:00 - - - - - - -
20.10.2018 23:00:00 17,2 14,3 5 3 WNW 1018,4 10
20.10.2018 22:00:00 18,0 15,0 8 4 NW - 10
20.10.2018 21:00:00 19,0 16,0 8 4 WNW - 10
20.10.2018 20:00:00 20,0 16,0 9 5 NNW 1018,1 18
20.10.2018 19:00:00 21,0 16,0 9 5 NNE - 10
20.10.2018 18:00:00 23,0 15,0 11 6 N - 10
20.10.2018 17:00:00 24,0 12,3 13 7 N 1017,4 18
20.10.2018 16:00:00 25,0 12,0 13 7 N - 10
20.10.2018 15:00:00 26,0 13,0 15 8 N - 10
20.10.2018 14:00:00 25,8 14,0 11 6 N 1018,3 18
20.10.2018 13:00:00 26,0 15,0 11 6 N - 10
20.10.2018 12:00:00 24,0 14,0 13 7 NNE - 10
20.10.2018 11:00:00 22,2 13,8 13 7 N 1018,3 18
20.10.2018 10:00:00 20,0 13,0 11 6 NNE - 10
20.10.2018 09:00:00 18,0 13,0 0 0 N - 10
20.10.2018 08:00:00 15,2 13,1 0 0 N 1017,6 12
20.10.2018 07:00:00 16,0 14,0 0 0 N - 10
20.10.2018 06:00:00 16,0 14,0 0 0 N - 10
20.10.2018 05:00:00 15,8 14,2 8 4 NW 1016,9 20
20.10.2018 04:00:00 16,0 14,0 0 0 N - 10
20.10.2018 03:00:00 16,0 14,0 0 0 N - 10
20.10.2018 02:00:00 16,0 14,4 8 4 NW 1017,5 15
20.10.2018 01:00:00 16,0 15,0 8 4 NNW - 10
20.10.2018 00:00:00 16,0 15,0 0 0 N - 10
19.10.2018 23:00:00 17,4 15,7 0 0 N 1016,6 20
19.10.2018 22:00:00 18,0 16,0 0 0 N - 10
19.10.2018 21:00:00 18,0 17,0 0 0 N - 10
19.10.2018 20:00:00 20,2 17,0 5 3 SSW 1015,4 10
19.10.2018 19:00:00 21,0 18,0 5 3 SSE - 10
19.10.2018 18:00:00 22,0 19,0 5 3 SSE - 10
19.10.2018 17:00:00 23,8 18,7 9 5 S 1015,2 10
19.10.2018 16:00:00 25,0 18,0 8 4 S - 10
19.10.2018 15:00:00 25,0 19,0 5 3 SSE - 10
19.10.2018 14:00:00 25,2 17,7 5 3 SSE 1015,5 10
19.10.2018 13:00:00 25,0 16,0 5 3 NNW - 10
19.10.2018 12:00:00 24,0 17,0 5 3 NNW - 10
19.10.2018 11:00:00 22,2 17,8 8 4 NNW 1015,4 10
19.10.2018 10:00:00 19,0 16,0 8 4 WNW - 10
19.10.2018 09:00:00 17,0 16,0 5 3 WNW - 10
19.10.2018 08:00:00 16,0 14,5 5 3 NW 1014,6 12
19.10.2018 07:00:00 16,0 15,0 5 3 WNW - 10
19.10.2018 06:00:00 16,0 15,0 4 2 WNW - 10
19.10.2018 05:00:00 16,6 15,5 8 4 NW 1014,5 10
19.10.2018 04:00:00 17,0 16,0 5 3 NW - 10
19.10.2018 03:00:00 17,0 16,0 5 3 WNW - 10
19.10.2018 02:00:00 17,0 16,0 5 3 NW 1014,4 15
19.10.2018 01:00:00 17,0 16,0 4 2 NW - 10
19.10.2018 00:00:00 18,0 16,0 4 2 NNW - 10
18.10.2018 23:00:00 18,8 17,1 8 4 NW 1014,1 20
18.10.2018 22:00:00 18,0 17,0 5 3 WNW - 10
18.10.2018 21:00:00 18,0 16,0 5 3 W - 10
18.10.2018 20:00:00 17,8 16,1 0 0 N 1013,7 20
18.10.2018 19:00:00 19,0 17,0 0 0 N - 10
18.10.2018 18:00:00 20,0 18,0 0 0 N - 10
18.10.2018 17:00:00 23,0 16,8 0 0 N 1012,5 20
18.10.2018 16:00:00 24,0 17,0 5 3 S - 10
18.10.2018 15:00:00 24,0 18,0 8 4 S - 10
18.10.2018 14:00:00 22,8 17,0 0 0 N 1013,3 20
18.10.2018 13:00:00 25,0 16,0 8 4 S - 10
18.10.2018 12:00:00 24,0 15,0 0 0 N - 10
18.10.2018 11:00:00 22,4 16,0 0 0 N 1014,3 10
18.10.2018 10:00:00 20,0 17,0 0 0 N - 8
18.10.2018 09:00:00 18,0 16,0 0 0 N - 8
18.10.2018 08:00:00 17,0 16,0 0 0 N 1014,2 4,0
18.10.2018 07:00:00 17,0 16,0 0 0 N - 6
18.10.2018 06:00:00 17,0 16,0 0 0 N - 10
18.10.2018 05:00:00 16,8 16,0 0 0 N 1014,2 15
18.10.2018 04:00:00 17,0 16,0 0 0 N - 10
18.10.2018 03:00:00 17,0 16,0 0 0 N - 10
18.10.2018 02:00:00 17,4 16,3 0 0 N 1015,0 15
18.10.2018 01:00:00 19,0 17,0 0 0 N - 10
18.10.2018 00:00:00 19,0 17,0 0 0 N - 10
17.10.2018 23:00:00 19,4 17,7 0 0 N 1015,4 20
17.10.2018 22:00:00 20,0 18,0 0 0 N - 10
17.10.2018 21:00:00 20,0 18,0 0 0 N - 10
17.10.2018 20:00:00 20,2 18,5 8 4 S 1014,8 15
17.10.2018 19:00:00 21,0 19,0 9 5 S - 10
17.10.2018 18:00:00 22,0 19,0 11 6 SSE - 10
17.10.2018 17:00:00 23,0 19,2 13 7 SSE 1014,6 20
17.10.2018 16:00:00 24,0 20,0 18 10 SSE - 10
17.10.2018 15:00:00 25,0 19,0 15 8 S - 10
17.10.2018 14:00:00 24,0 18,7 16 9 SSE 1016,1 20
17.10.2018 13:00:00 25,0 19,0 24 13 SSE - 10
17.10.2018 12:00:00 24,0 19,0 22 12 SE - 10
17.10.2018 11:00:00 23,6 18,5 21 11 SE 1016,9 18

tt = Température de l'air
td = dewpoint
ff = Vitesse du vent
dd = Direction du vent
ppp = reduced air pressure
vv = visibility

stations d'obs. à proximité